Location: Asheville, NC
(35.6000°N, 82.5500°W)
Time: 20:13:14

CUTE-I - Pass Details

Date: 13 March 2018
Orbit: 812 x 824 km, 98.7° (Epoch: 17 March)

Event Time Altitude Azimuth Distance (km) Brightness Sun altitude
Rises 06:28:44 0° 37° (NE) 3,362 ? -16.1°
Reaches altitude 10° 06:32:35 10° 65° (ENE) 2,422 ? -15.3°
Maximum altitude 06:34:55 13° 91° (E) 2,220 ? -14.8°
Drops below altitude 10° 06:37:15 10° 118° (ESE) 2,413 ? -14.3°
Sets 06:41:02 0° 145° (SE) 3,337 ? -13.6°
